Weather Roundup
Issued by NWS

Home | Current Version | Previous Version | Graphics & Text | Print | Product List | Glossary Off
Versions: 1 2 3 4 5 6 7 8 9 10 11 12 13 14 15 16 17 18 19 20 21 22 23 24 25 26 27 28 29 30 31 32 33 34 35 36 37 38 39 40 41 42 43 44 45 46 47 48 49 50

000
NZUS93 KARX 271010
HRRWXR

CURRENT HOURLY OBSERVATIONS ACROSS
MUCH OF THE UPPER MISSISSIPPI VALLEY
NATIONAL WEATHER SERVICE LA CROSSE WI
500 AM CDT TUE SEP 27 2016


...SOUTHEAST MINNESOTA...


CITY           SKY/WX    TMP DP  RH WIND       PRES   REMARKS
ROCHESTER      CLEAR     46  38  73 W12       29.86S
ROCHESTER/MAYO FAIR      49  36  61 W12G20    29.85S
WINONA         CLEAR     54  37  54 W13G22    29.81S
AUSTIN           N/A     46  37  71 W8        29.89R
ALBERT LEA     CLEAR     48  37  66 W7        29.90S
DODGE CENTER   CLEAR     41  37  87 W8        29.87S
PRESTON        CLEAR     45  35  68 W14       29.86F
OWATONNA       CLEAR     45  37  76 W7        29.89S
FARIBAULT      CLEAR     48  39  71 W8        29.88S
$$

...ELSEWHERE IN MINNESOTA...


CITY           SKY/WX    TMP DP  RH WIND       PRES   REMARKS
MINNEAPOLIS    CLEAR     51  37  58 W12       29.84S
INTNL FALLS    CLOUDY    48  46  93 NW12      29.70R
DULUTH         CLOUDY    50  45  83 NW17G30   29.67S
RED WING       CLEAR     50  37  62 NW7       29.81S
REDWOOD FALLS  CLEAR     44  37  76 W8        29.93S
MANKATO        CLEAR     48  37  65 W12       29.91S
WORTHINGTON    CLEAR     43  36  76 W9        29.98S
FAIRMONT       CLEAR     48  37  65 W9        29.94S
$$

...SOUTHWEST WISCONSIN...


CITY           SKY/WX    TMP DP  RH WIND       PRES   REMARKS
LA CROSSE      CLEAR     55  38  52 W14       29.80F
PRAIRIE DU CHI CLEAR     51  35  54 W10       29.86R
BOSCOBEL       CLEAR     49  39  68 SW6       29.85S
LONE ROCK      CLEAR     49  39  68 W8        29.82F
PLATTEVILLE    CLEAR     48  39  71 W7        29.86S
FORT MC COY    CLEAR     48  40  73 W6        29.79S
CAMP DOUGLAS   CLEAR     50  40  68 W9        29.76S
MAUSTON-NEW LI SUNNY     51  40  66 W9        29.76S
VIROQUA        FAIR      48  37  65 W9        29.81S
WIS DELLS      CLEAR     50  37  59 W12G18    29.77F
$$

...ELSEWHERE IN WISCONSIN...


CITY           SKY/WX    TMP DP  RH WIND       PRES   REMARKS
MILWAUKEE      CLEAR     53  38  56 SW10      29.78S
MADISON        CLEAR     52  37  56 VRB3      29.79S
GREEN BAY      CLOUDY    54  43  66 SW13G18   29.67F
EAU CLAIRE     CLOUDY    52  42  69 W13G20    29.75F
BLACK RVR FLS  FAIR      48  39  69 W7        29.77S
MEDFORD        CLOUDY    49  42  75 W9        29.69S
WAUSAU         CLOUDY    51  41  68 W15G23    29.67F
WIS RAPIDS     CLOUDY    50  42  74 W9        29.74F
MARSHFIELD     CLOUDY    51  41  68 W10       29.71F
RICE LAKE      CLOUDY    51  41  70 W8G17     29.75S
$$

...NORTHEAST IOWA...


CITY           SKY/WX    TMP DP  RH WIND       PRES   REMARKS
WATERLOO       CLEAR     47  39  74 W8        29.91S
DUBUQUE        CLEAR     42  39  89 SW8       29.88F
DECORAH        CLEAR     46  37  71 VRB6      29.86S
MASON CITY     CLEAR     44  37  76 W10       29.93S
CHARLES CITY   CLEAR     45  39  81 W7        29.90F
OELWEIN        CLEAR     43  39  87 W7        29.91S
$$

...ELSEWHERE IN IOWA...


CITY           SKY/WX    TMP DP  RH WIND       PRES   REMARKS
DES MOINES     CLEAR     51  44  77 W5        29.99S
IOWA CITY      CLEAR     47  42  83 W7        29.95S
FORT DODGE     CLEAR     48  36  61 CALM      29.98S
MARSHALLTOWN   CLEAR     46  40  79 W7        29.94F
CEDAR RAPIDS   CLEAR     45  42  89 W6        29.92F
$$

...NORTHERN ILLINOIS...


CITY           SKY/WX    TMP DP  RH WIND       PRES   REMARKS
CHICAGO-OHARE  CLEAR     52  40  63 W10       29.84F
CHICAGO-MIDWAY CLEAR     55  40  56 SW12      29.86S
MOLINE         CLEAR     51  43  74 W6        29.92F
ROCKFORD       CLEAR     52  40  63 W7        29.88S
PEORIA         CLEAR     52  46  80 W7        29.95S
$$

NOTE: "FAIR" INDICATES FEW OR NO CLOUDS BELOW 12,000 FEET WITH NO
SIGNIFICANT WEATHER AND/OR OBSTRUCTIONS TO VISIBILITY. WIND
SPEEDS ARE IN MILES-PER-HOUR.




USA.gov is the U.S. government's official web portal to all federal, state and local government web resources and services.